Location: La Fredeussais
(48.1780°N, 1.3980°W)
Time: 08:37:36
(UTC+00:00)

Daily predictions for brighter satellites

Satellite Brightness Start Highest point End
(mag) Time Altitude Azimuth Time Altitude Azimuth Time Altitude Azimuth
Cosmos 1633 Rocket 4.4 20:02:56 10° NNE 20:06:36 25° ENE 20:10:14 10° SE
ARIANE 5 R/B 4.3 20:07:03 10° ESE 20:10:06 19° ENE 20:13:10 10° NNE
Terra 4.0 20:09:00 10° ENE 20:10:46 12° NE 20:12:34 10° NNE
USA 290 2.7 20:08:24 10° NNW 20:11:34 45° ENE 20:14:41 10° SE
Cosmos 1743 Rocket 3.9 20:09:04 10° NNW 20:13:23 67° W 20:17:42 10° S
Intercosmos 25 Rocket 4.1 20:07:09 10° N 20:14:04 85° E 20:18:16 10° S
IGS 5A 3.9 20:11:51 10° SE 20:15:48 46° ENE 20:19:48 10° N
Cosmos 1745 Rocket 4.0 20:10:16 10° N 20:16:29 70° E 20:22:36 10° SSE
Resurs 1-3 3.7 20:13:36 10° SSE 20:17:59 87° WSW 20:22:25 10° NNW
Cosmos 1709 Rocket 4.4 20:13:14 10° N 20:19:05 45° ENE 20:24:54 10° SE
Cosmos 1933 3.8 20:15:42 10° SSE 20:19:30 42° E 20:23:20 10° NNE
Cosmos 1503 Rocket 4.4 20:15:24 10° S 20:20:13 41° ESE 20:25:05 10° NE
X-37B 1.1 20:18:15 10° W 20:21:20 45° S 20:24:16 11° ESE
Cosmos 1437 Rocket 2.7 20:18:21 10° S 20:22:13 82° E 20:26:12 10° NNE
Cosmos 2221 4.1 20:19:45 10° SW 20:23:48 40° WNW 20:27:56 10° N
USA 305 4.1 20:19:58 10° WNW 20:24:01 40° N 20:28:03 10° E
Cosmos 1500 Rocket 4.5 20:20:41 10° NNW 20:24:57 50° W 20:29:09 10° S
Cosmos 2082 Rocket 4.0 20:22:52 10° N 20:26:57 20° NE 20:31:01 10° E
COSMOS 2406 4.3 20:22:36 10° NNW 20:27:38 32° NE 20:32:38 10° ESE
Meteor 1-20 Rocket 4.2 20:25:22 10° N 20:31:02 76° ENE 20:36:34 10° SSE
Ariane Rocket 3.5 20:27:32 10° S 20:32:32 61° WSW 20:37:33 10° NNW
Cosmos 1666 Rocket 3.8 20:29:01 10° N 20:33:20 52° ENE 20:37:20 11° SSE
S3M 4.1 20:31:16 10° S 20:37:39 84° E 20:44:01 10° N
Cosmos 2315 Rocket 4.3 20:33:06 10° SSE 20:39:10 49° E 20:45:17 10° NNE
Cosmos 1782 3.4 20:36:24 10° SSE 20:40:08 39° E 20:43:52 10° NNE
Landsat 7 3.8 20:35:49 10° SSE 20:40:33 74° ENE 20:45:20 10° N
USA 306 3.9 20:39:13 10° WNW 20:43:18 43° NNE 20:47:24 10° E
USA 245 3.2 20:42:52 20° ESE 20:43:48 27° ENE 20:45:47 10° N
SPOT 1/Viking Rocket 3.6 20:45:30 13° SSE 20:50:07 66° ENE 20:55:17 10° N
Cosmos 1602 3.7 20:47:00 10° N 20:50:52 75° E 20:54:03 15° SSE
Cosmos 1354 Rocket 4.0 20:46:53 10° S 20:52:03 66° ESE 20:57:16 10° NNE
Sich 1 3.5 20:48:35 10° NNW 20:52:52 61° W 20:57:09 10° S
SJ 16-02 3.0 20:52:11 15° ESE 20:53:12 16° E 20:55:56 10° ENE
Cosmos 2278 Rocket 3.2 20:50:06 14° SSE 20:53:46 26° ESE 20:58:23 10° NE
Resurs 01 Rocket 2.1 20:53:28 10° S 20:57:51 59° W 21:02:16 10° NNW
CRYOSAT 2 4.4 20:56:19 13° SSE 21:00:40 73° E 21:05:35 10° N
MetOp-B 4.2 20:57:13 12° SSE 21:02:15 82° WSW 21:07:39 10° NNW
Cosmos 1844 Rocket 3.4 20:57:41 10° SW 21:03:09 57° WNW 21:08:41 10° NNE
SPOT 3 Rocket 3.9 20:58:59 10° S 21:04:05 62° WSW 21:09:12 10° NNW
NOSS 3-3 (A) 3.9 21:01:18 10° SSW 21:06:52 56° ESE 21:13:15 10° NE
NOSS 3-3 (C) 3.9 21:01:24 10° SSW 21:06:59 56° ESE 21:13:21 10° NE
USA 307 3.6 21:05:00 10° WNW 21:09:11 50° NNE 21:12:48 13° E
ATLAS 2AS CENTAUR R/B 3.9 21:03:07 10° NW 21:10:04 37° NNE 21:16:32 10° E
SL-4 R/B 4.3 21:08:58 10° W 21:11:47 17° SW 21:14:33 10° S
CREW DRAGON DEMO-1 DEB 3.3 21:11:16 10° WNW 21:13:51 46° NNE 21:15:13 22° ENE
Cosmos 1151 Rocket 3.0 21:10:02 10° S 21:14:23 88° W 21:18:48 10° N
BREEZE-M R/B 1.5 21:14:19 10° WSW 21:16:47 85° SSE 21:18:26 19° ENE
CZ-4C R/B 3.0 21:10:38 10° NW 21:17:45 80° NE 21:23:48 20° SE
Cosmos 1812 3.0 21:16:50 26° SSE 21:18:37 47° E 21:22:21 10° NNE
USA 215 4.4 21:14:26 10° ENE 21:20:29 42° N 21:26:32 10° WNW
Iridium 4 Rocket 4.1 21:18:17 21° SSE 21:21:51 49° E 21:27:31 10° NNE
USA 308 3.4 21:18:31 10° WNW 21:22:45 56° NNE 21:25:48 18° E
JB-3 4.3 21:20:04 10° NNE 21:23:57 60° E 21:25:57 26° S
ATLAS 5 CENTAUR R/B 2.9 21:18:45 10° NW 21:24:12 51° WSW 21:28:41 19° S
Cosmos 1538 Rocket 4.2 21:20:28 10° NNW 21:25:50 63° ENE 21:28:51 26° SE
Meteor 1-5 Rocket 4.1 21:22:10 10° N 21:27:37 72° ENE 21:30:46 25° SSE
Cosmos 2084 3.3 21:24:41 10° SSW 21:28:47 65° SE 21:33:00 10° NE
Cosmos 1242 Rocket 4.3 21:28:32 10° SW 21:31:47 32° WNW 21:35:00 10° N
Cosmos 1666 2.8 21:30:02 10° N 21:33:44 58° ENE 21:34:57 37° SE
Cosmos 773 Rocket 4.3 21:30:26 10° NNW 21:35:41 63° WSW 21:38:58 23° S
Cosmos 1833 Rocket 2.7 21:30:37 10° NNW 21:36:19 86° ENE 21:39:27 28° SSE
Cosmos 1515 Rocket 3.5 21:34:00 25° S 21:36:32 73° E 21:40:56 10° NNE
Cosmos 1869 Rocket 4.4 21:35:56 10° N 21:39:57 35° ENE 21:41:16 29° ESE
Spot 2 Rocket 3.8 21:36:57 21° S 21:40:20 63° WSW 21:45:22 10° NNW
SPOT 5 3.0 21:41:09 27° SSE 21:43:58 87° WSW 21:49:17 10° NNW
Cosmos 1633 Rocket 4.4 21:40:27 10° NNW 21:44:29 36° W 21:47:48 14° SSW
ARIANE 5 R/B 3.1 21:43:44 23° S 21:46:12 54° W 21:50:27 10° NNW
Terra 1.8 21:45:33 33° SSE 21:47:42 75° ENE 21:52:29 10° N
Cosmos 1437 3.9 21:49:27 20° SW 21:50:53 34° WNW 21:53:33 10° N
ERS-1 Rocket 3.1 21:50:41 28° S 21:53:21 71° WSW 21:58:24 10° NNW
deb Kosmos-1763 3.9 21:51:07 10° NNW 21:54:41 84° WSW 21:55:21 56° SSE
Cosmos 1470 Rocket 4.3 21:50:31 10° NNW 21:54:51 49° W 21:57:20 23° SSW
Cosmos 2154 Rocket 4.1 21:50:50 10° N 21:57:09 63° ENE 22:00:11 31° SSE
X-37B 2.6 21:55:01 10° WSW 21:56:32 19° SW 21:56:32 19° SW
CZ-4B DEB 4.2 22:03:19 65° SSW 22:03:39 74° WSW 22:06:53 10° NNW
USA 305 2.8 22:00:02 10° WNW 22:04:19 89° NNE 22:05:35 45° ESE
Cosmos 2184 Rocket 4.0 21:58:43 10° N 22:04:59 82° W 22:08:18 30° S
Cosmos 1777 Rocket 4.3 22:01:04 10° SSW 22:06:14 65° WNW 22:11:26 10° NNE
Cosmos 1933 Rocket 4.1 22:05:05 10° NNW 22:09:18 51° W 22:11:03 31° SSW
Cosmos 2074 Rocket 4.1 22:05:28 10° NNW 22:11:45 72° W 22:15:13 28° S
Cosmos 2082 Rocket 2.1 22:06:14 10° NNW 22:11:54 85° ENE 22:14:07 39° SSE
COSMOS 2406 3.7 22:06:43 10° NW 22:12:13 53° WSW 22:14:42 31° S
Meteor 2-12 Rocket 4.4 22:06:57 10° N 22:13:03 88° ENE 22:15:49 35° S
Meteor 1-27 Rocket 3.8 22:12:02 35° SSE 22:14:27 66° E 22:20:20 10° NNE
Cosmos 44 4.3 22:10:25 10° NNW 22:15:39 45° NE 22:18:22 25° E
Cosmos 923 Rocket 4.0 22:13:35 10° NNW 22:18:53 78° ENE 22:20:38 43° SE
Nadezhda 1 Rocket 3.9 22:16:05 32° S 22:19:13 79° E 22:25:29 10° NNE
Cosmos 1898 Rocket 4.1 22:20:54 37° ESE 22:21:33 38° ESE 22:26:27 10° NE
Cosmos 1271 Rocket 3.1 22:21:48 39° SW 22:23:04 62° WNW 22:27:04 10° N
USA 306 2.8 22:19:14 10° WNW 22:23:30 72° SSW 22:24:02 62° SSE
Gbstr 26 Del rocket 4.4 22:20:46 10° WNW 22:28:20 69° N 22:34:28 11° E
Cosmos 1544 3.0 22:25:34 10° N 22:29:08 70° ENE 22:29:08 70° ENE
SJ 16-02 1.8 22:29:06 28° SW 22:31:17 60° WNW 22:35:41 10° NNE
Cosmos 1733 Rocket 3.7 22:27:41 10° N 22:31:48 41° ENE 22:32:19 39° E
Cosmos 1610 Rocket 4.5 22:27:58 10° NNW 22:34:07 75° W 22:36:41 37° S
Cosmos 2278 Rocket 2.8 22:31:55 10° SW 22:37:29 57° WNW 22:43:05 10° NNE
Meteor 1-11 Rocket 4.2 22:31:54 10° NNW 22:37:47 59° W 22:40:16 34° SSW
Cosmos 1238 Rocket 4.2 22:31:52 10° N 22:38:07 55° ENE 22:39:54 40° SE
H-2A R/B 4.3 22:35:19 10° N 22:39:21 46° WNW 22:41:06 28° SW
Okean 1 4.2 22:40:56 36° E 22:40:56 36° E 22:44:17 10° NNE
Cosmos 2228 Rocket 3.5 22:39:25 38° SW 22:40:51 57° WNW 22:45:15 10° N
Cosmos 990 Rocket 3.9 22:40:06 51° SSE 22:41:16 68° ESE 22:46:31 10° NNE
Cosmos 1340 Rocket 2.7 22:39:04 10° NNW 22:43:11 89° E 22:43:27 78° SSE
Cosmos 2366 rocket 4.4 22:41:34 10° N 22:47:34 51° ENE 22:49:36 37° SE
Cosmos 2369 Rocket 3.6 22:48:04 22° E 22:48:04 22° E 22:52:05 10° NE
NOSS 3-4 (A) 4.0 22:41:08 10° NW 22:48:02 62° SW 22:50:58 38° S
NOSS 3-4 (C) 4.0 22:41:14 10° NW 22:48:08 63° SW 22:51:05 38° S
USA 307 3.2 22:45:03 10° WNW 22:48:53 51° SW 22:48:53 51° SW
Cosmos 2341 Rocket 4.0 22:43:05 10° N 22:49:32 80° E 22:51:45 44° SSE
Cosmos 1943 Rocket 2.6 22:52:38 42° ESE 22:53:07 43° ESE 22:58:23 10° NE
Cosmos 1536 3.6 22:50:49 10° NNW 22:54:39 42° W 22:55:05 41° WSW
Meteor 2-9 Rocket 4.5 22:49:15 10° N 22:55:00 59° ENE 22:56:34 44° SE
SeaSat 1 4.4 22:53:09 10° ENE 22:55:08 15° E 22:55:08 15° E
Cosmos 2112 Rocket 4.0 22:52:16 10° NNW 22:57:39 78° WSW 22:58:49 55° S
ATLAS 2AS CENTAUR R/B 2.7 22:54:20 10° NW 23:01:46 80° SW 23:04:17 43° SSE
USA 308 3.7 22:58:38 10° WNW 23:01:54 38° WSW 23:01:54 38° WSW
USA 215 3.6 22:57:12 14° ESE 23:02:56 63° NNE 23:09:23 10° NW
CZ-4C R/B 4.1 22:59:41 10° NW 23:06:04 31° WSW 23:08:59 25° SSW
Cosmos 2218 Rocket 4.0 23:00:52 10° N 23:07:09 73° E 23:09:04 46° SSE
Cosmos 1975 3.3 23:04:32 10° N 23:08:17 49° ENE 23:08:17 49° ENE
SL-24 R/B - RUBIN 2 3.8 23:02:58 10° NW 23:08:32 84° SW 23:09:20 64° SSE
Meteor 2-4 Rocket 4.4 23:09:23 37° ESE 23:10:19 40° E 23:15:33 10° NNE
Cosmos 1862 Rocket 3.4 23:13:57 76° E 23:13:57 76° E 23:18:17 10° NNE
Cosmos 1743 3.6 23:14:18 10° NNW 23:17:47 41° W 23:17:47 41° W
Cosmos 1900 4.2 23:18:45 68° SSE 23:19:15 74° ESE 23:24:19 10° NE
Cosmos 2084 Rocket 3.4 23:16:19 10° NW 23:20:36 80° NE 23:20:45 78° ENE
ERBS 3.5 23:18:04 10° NW 23:20:56 39° NNE 23:20:56 39° NNE
Cosmos 1680 Rocket 4.2 23:20:21 10° NW 23:25:19 41° WSW 23:26:06 38° SW
Terra 4.0 23:24:26 13° WSW 23:26:00 15° W 23:28:41 10° NW
Cosmos 1937 Rocket 3.4 23:26:02 61° SSW 23:26:58 86° WNW 23:32:11 10° NNE
Meteor 1-18 Rocket 4.1 23:27:33 58° S 23:28:43 83° E 23:34:21 10° NNE
Cosmos 2297 3.8 23:32:11 44° SW 23:34:03 75° WNW 23:39:46 10° NNE
SL-8 Rocket 4.2 23:28:21 10° NNW 23:34:37 64° W 23:36:25 45° SSW
Cosmos 1818 3.5 23:30:35 10° NW 23:36:05 77° SW 23:36:53 64° S
Thor Agena Rocket 4.0 23:31:10 10° NNE 23:36:12 45° E 23:36:39 44° ESE
ALOS 2 2.5 23:36:53 77° WSW 23:36:55 77° WSW 23:41:20 10° NNW
Spot 4 4.4 23:40:08 43° WSW 23:40:35 44° W 23:45:16 10° NNW
DNEPR-1 R/B 3.9 23:39:46 57° SSW 23:40:59 85° SE 23:45:56 10° NE
Okean 1-7 3.5 23:42:48 50° ENE 23:42:48 50° ENE 23:46:39 10° NNE
SL-08 R/B 4.4 23:39:37 10° N 23:45:50 81° E 23:47:31 52° SSE
Cosmos 2082 Rocket 4.0 23:51:52 10° WNW 23:55:13 16° W 23:55:58 16° WSW
